Regional Weather Roundup
Issued by NWS

Home | Current Version | Previous Version | Text Only | Print | Product List | Glossary Off
Versions: 1 2 3 4 5 6 7 8 9 10 11 12 13 14 15 16 17 18 19 20 21 22 23 24 25 26 27 28 29 30 31 32 33 34 35 36 37 38 39 40 41 42 43 44 45 46 47 48 49 50

985
ASUS43 KMKX 271721
RWRWI

WISCONSIN REGIONAL WEATHER ROUNDUP
NATIONAL WEATHER SERVICE MILWAUKEE/SULLIVAN WI
1200 PM CDT SAT MAY 27 2017

NOTE: "FAIR" INDICATES FEW OR NO CLOUDS BELOW 12,000 FEET WITH NO
SIGNIFICANT WEATHER AND/OR OBSTRUCTIONS TO VISIBILITY.

WIZ001-002-006>008-014>016-023>028-271800-
NORTHWEST WISCONSIN

CITY           SKY/WX    TMP DP  RH WIND       PRES   REMARKS
SUPERIOR ARPT  NOT AVBL
ASHLAND        PTSUNNY   70  48  45 W9        29.84F
HAYWARD        PTSUNNY   70  45  40 MISG      29.87S
SIREN          MOSUNNY   68  43  39 NW10G16   29.89R
CUMBERLAND     PTSUNNY   66  43  42 W9        29.89S
RICE LAKE      MOSUNNY   68  44  41 SW5       29.91R
CHETEK         PTSUNNY   68  47  47 W7        29.90R
LADYSMITH      PTSUNNY   69  48  47 NW8       29.90R
EAU CLAIRE     SUNNY     71  47  42 W6        29.89R
MENOMONIE      MOSUNNY   71  47  42 SW7       29.90S
NEW RICHMOND   CLOUDY    71  44  38 W8        29.90S
OSCEOLA        CLOUDY    69  45  40 W9        29.93R
$$

WIZ003>005-009-010-017-018-271800-
NORTH CENTRAL WISCONSIN

CITY           SKY/WX    TMP DP  RH WIND       PRES   REMARKS
MANITOWISH WTR MOSUNNY   70  48  45 SW9       29.84F
ARBOR VITAE    MOSUNNY   72  50  45 NW6       29.85S
WOODRUFF       MOSUNNY   72  50  45 NW6       29.85S
RHINELANDER    MOSUNNY   72  49  44 SW9       29.86F
EAGLE RIVER    SUNNY     71  43  36 W7        29.85S
LAND O LAKES   PTSUNNY   70  46  42 W3        29.86S
PHILLIPS       MOSUNNY   68  49  49 SW10      29.87R
TOMAHAWK       MOSUNNY   70  49  46 W8        29.87S
MEDFORD        SUNNY     69  47  46 W7        29.88S
MERRILL        MOSUNNY   71  49  45 SW5G18    29.87S
$$

WIZ029-030-035-036-043>047-271800-
CENTRAL WISCONSIN

CITY           SKY/WX    TMP DP  RH WIND       PRES   REMARKS
WAUSAU         MOSUNNY   72  53  51 SW8       29.86S
MOSINEE        MOSUNNY   72  52  49 SW14      29.89S
MARSHFIELD     MOSUNNY   72  52  49 W9        29.88R
STEVENS POINT  SUNNY     71  49  45 W6        29.89R
WAUPACA        MOSUNNY   75  58  54 S9        29.88S
WAUTOMA        PTSUNNY   73  61  64 S10G16    29.89S
WISC RAPIDS    SUNNY     76  51  41 SW8       29.89S
CAMP DOUGLAS   MOSUNNY   73  56  53 NW7       29.89R
$$

WIZ011>013-019>022-031-037>040-048>050-271800-
NORTHEAST WISCONSIN

CITY           SKY/WX    TMP DP  RH WIND       PRES   REMARKS
ANTIGO         PTSUNNY   70  54  57 SW8       29.87S
SHAWANO        MOSUNNY   75  57  52 S8        29.87S
OCONTO         MOSUNNY   72  54  52 S10       29.87S
STURGEON BAY   SUNNY     70  53  54 S12       29.89R
GREEN BAY      MOSUNNY   72  56  57 SW10G17   29.89R
MANITOWOC      SUNNY     67  52  58 S12       29.91R
APPLETON       MOSUNNY   70  52  52 SW8       29.89R
CLINTONVILLE   SUNNY     73  55  53 S12G17    29.87S
OSHKOSH        SUNNY     71  55  56 SW9       29.89S
$$

WIZ032>034-041-042-053>061-271800-
SOUTHWEST WISCONSIN

CITY           SKY/WX    TMP DP  RH WIND       PRES   REMARKS
LA CROSSE      MOSUNNY   73  58  59 VRB7      29.89S
SPARTA         MOSUNNY   73  49  43 W8        29.90S
VIROQUA        MOSUNNY   71  55  57 SW5       29.92R
BOSCOBEL       MOSUNNY   69  59  70 W6        29.92S
PRAIRIE DU CHI SUNNY     69  60  73 S3        29.92R
PLATTEVILLE    CLOUDY    67  63  86 SW6       29.94S
$$

WIZ056-057-062-063-064-067-068-271800-
SOUTH CENTRAL WISCONSIN

CITY           SKY/WX    TMP DP  RH WIND       PRES   REMARKS
REEDSBURG      PTSUNNY   66  61  85 SE5       29.91F
BARABOO/DELLS  MOSUNNY   66  59  76 SW10      29.92R
LONE ROCK      CLOUDY    67  59  75 VRB5      29.92S HAZE
MINERAL POINT  CLOUDY    68  63  83 S3        29.93F
MADISON        PTSUNNY   70  58  65 VRB6      29.91S
MIDDLETON      PTSUNNY   70  59  66 S3        29.92F
WATERTOWN      PTSUNNY   70  58  65 S8        29.91S
MONROE         MOSUNNY   68  55  64 S6        29.93S
JANESVILLE     PTSUNNY   72  59  64 S10       29.92S
$$

WIZ051-052-058>065-066-070>072-271800-
SOUTHEAST WISCONSIN

CITY           SKY/WX    TMP DP  RH WIND       PRES   REMARKS
MILWAUKEE      MOSUNNY   69  55  60 SE9       29.92S
WAUKESHA       MOSUNNY   68  55  64 SE5       29.93R
MILWAUKEE/TIMM MOSUNNY   70  50  49 SE8       29.91F
RACINE         CLOUDY    68  53  58 VRB5      29.94S
KENOSHA        SUNNY     69  55  60 S7        29.92S
FOND DU LAC    PTSUNNY   71  54  54 SW12      29.91R
SHEBOYGAN      SUNNY     69  55  60 S10       29.90R
WEST BEND      MOSUNNY   70  55  60 SW7       29.91R
JUNEAU         MOSUNNY   67  56  69 SW9       29.93R
$$

LSZ147-162-271800-
LAKE SUPERIOR

STATION/POSITION TIME  TEMP    WIND        PRES    WAVE
                       AIR SEA DIR/SP/G            HT/PER
                 (UTC) (F)     (DEG/KT/KT) (MB)    (FT/S)
W MID LAKE BUOY  1650   42 37  260/ 10/ 12 1010.5F   0
DEVILS ISLAND    1700   56     230/  6/  9 1010.4F
SAXON HARBOR     1640   67      70/  7/  7 1010.5S
$$

LMZ867-665-643>646-271800-
LAKE MICHIGAN

STATION/POSITION TIME  TEMP    WIND        PRES    WAVE
                       AIR SEA DIR/SP/G            HT/PER
                 (UTC) (F)     (DEG/KT/KT) (MB)    (FT/S)
CHAMBERS ISLAND  1640   69     190/  7/ 12 1011.5R
N MID LAKE BUOY  1650   45 42  200/  6/  8 1013.3R   0
NORTHPORT PIER   1640   61     150/  7/ 10 1011.9S
KEWAUNEE LAKESHO 1654   53     170/  8/  9 1012.2R
SHEBOYGAN LAKESH 1700   56     170/ 15/ 15 1012.7R
PORT WASHINGTON  1630   60     190/  6/  9 1013.9S
ATWATER BUOY     1609   51     160/  6/  8 1013.1F
MILWAUKEE LAKESH 1700   54     130/ 10/ 11   N/A
S MID LAKE BUOY  1650   52 51   10/  4/  4 1013.1F   0
KENOSHA   LAKESH 1700   59     170/  3/  4 1013.2
$$

TC  - TEMPERATURE IN CELSIUS
VSB - VISIBILITY IN STATUTE MILES
WCI - WIND CHILL INDEX
HX  - HEAT INDEX





USA.gov is the U.S. government's official web portal to all federal, state and local government web resources and services.